Regional Weather Roundup
Issued by NWS

Home | Current Version | Previous Version | Graphics & Text | Print | Product List | Glossary On
Versions: 1 2 3 4 5 6 7 8 9 10 11 12 13 14 15 16 17 18 19 20 21 22 23 24 25 26 27 28 29 30 31 32 33 34 35 36 37 38 39 40 41 42 43 44 45 46 47 48 49 50
000
ASUS43 KFSD 271902
RWRSD

WEATHER ROUNDUP FOR SOUTH DAKOTA
NATIONAL WEATHER SERVICE SIOUX FALLS SD
200 PM CDT SUN JUL 27 2014

NOTE: "FAIR" INDICATES FEW OR NO CLOUDS BELOW 12,000 FEET WITH NO
SIGNIFICANT WEATHER AND/OR OBSTRUCTIONS TO VISIBILITY.


SDZ001>005-009-010-012>017-272000-
NORTHWEST AND NORTH CENTRAL SOUTH DAKOTA

CITY           SKY/WX    TMP DP  RH WIND       PRES   REMARKS
BUFFALO          N/A     74  51  44 NW7G17    30.24F
FAITH            N/A     75  54  47 NW13G24   30.27F
MOBRIDGE       PTSUNNY   71  55  56 NW16G24   30.22S
$$

SDZ012>016-024>037-041>051-057-063-072>074-272000-
SOUTHWEST AND SOUTH CENTRAL SOUTH DAKOTA

CITY           SKY/WX    TMP DP  RH WIND       PRES   REMARKS
RAPID CTY ARPT SUNNY     78  50  37 N13G23    30.30F
PIERRE         MOSUNNY   77  55  46 N18G24    30.21F
CUSTER         SUNNY     74  47  38 E8        30.40F
ELLSWORTH AFB  SUNNY     78  47  33 N20G30    30.29F
PHILIP         MOSUNNY   80  52  37 N12G22    30.24F
PINE RIDGE     SUNNY     78  51  38 N10G23    30.31F
WINNER         MOCLDY    83  54  36 NW18G28   30.21F
$$

SDZ004>011-016>023-039-040-272000-
NORTHEAST SOUTH DAKOTA

CITY           SKY/WX    TMP DP  RH WIND       PRES   REMARKS
ABERDEEN       CLOUDY    68  55  63 N22       30.18S
WATERTOWN      CLOUDY    63  54  72 NW21      30.15R
SISSETON         N/A     67  58  72 N23       30.11R
$$

SDZ017-020-022-023-036>040-048>070-272000-
SOUTHEAST SOUTH DAKOTA

CITY           SKY/WX    TMP DP  RH WIND       PRES   REMARKS
SIOUX FALLS    PTSUNNY   71  57  61 N17G25    30.13R
HURON          CLOUDY    70  55  59 N18       30.17R
CHAMBERLAIN    MOSUNNY   76  54  46 N15       30.19S
MITCHELL       MOSUNNY   73  58  59 N18G25    30.17S
YANKTON        PTSUNNY   73  57  56 NW17G25   30.15S
$$

ABBREVIATIONS USED IN REMARKS
   TC - TEMPERATURE IN CELSIUS
  WCI - WIND CHILL INDEX
   HX - HEAT INDEX
  VSB - VISIBILITY



USA.gov is the U.S. government's official web portal to all federal, state and local government web resources and services.